Theta_e
291 292 293 293 294 294 295 295 295 295 296 295 295 295 295 296 297 296 295 296 295 294 295 295 294 297 296 297 299 300 299 300 305 286 287 288 287 288 288 290 291 291 293
289 289 290 291 291 292 292 292 293 292 293 295 293 292 292 291 292 292 291 291 291 291 292 292 292 294 293 293 293 292 292 293 293 286 285 285 285 285 286 286 287 287 287
287 287 287 287 288 289 289 290 291 290 291 290 290 290 290 290 289 290 289 289 288 288 289 289 290 292 290 291 291 290 290 291 291 288 284 284 284 285 284 284 284 284 286
285 285 285 285 286 287 287 288 288 289 289 288 289 288 288 288 288 288 288 287 286 286 286 287 287 288 289 290 289 289 289 289 288 286 284 283 284 284 286 284 283 284 282
284 284 284 284 285 285 286 286 286 287 287 288 287 287 287 287 286 286 285 284 283 282 283 284 285 286 287 288 289 288 289 288 288 286 285 285 285 285 285 285 283 282 279
282 282 283 283 283 284 284 285 285 285 285 285 285 284 284 285 286 285 283 282 281 281 280 281 281 283 285 286 287 287 287 288 286 286 285 284 282 282 282 281 280 279 279
281 282 282 282 282 282 283 283 283 283 284 283 284 284 283 284 285 285 283 282 281 281 281 280 280 280 281 281 283 283 283 284 284 284 282 280 279 279 280 279 279 279 278
280 280 281 281 281 282 282 282 282 282 282 282 282 283 283 284 285 285 283 282 281 281 281 281 281 280 281 280 280 280 281 281 280 279 278 278 278 279 279 279 278 277 277
278 279 280 281 281 281 280 281 282 282 281 282 282 282 282 283 285 284 282 281 281 281 282 282 281 281 283 282 279 278 278 278 283 284 284 283 283 282 280 279 277 277 275
277 278 279 280 280 279 280 280 281 281 281 281 281 282 282 283 285 284 282 281 280 280 281 282 283 282 283 281 278 278 276 276 277 277 277 278 278 278 279 277 276 276 274
277 277 278 279 279 279 279 279 279 279 279 280 280 281 282 282 284 284 283 280 280 279 279 279 281 284 284 283 281 278 277 277 277 275 275 276 276 276 276 276 276 275 274
274 275 275 276 278 278 277 277 277 278 278 278 279 280 280 281 284 285 285 283 281 279 279 279 281 283 283 282 281 281 279 275 274 274 274 274 274 274 274 274 272 273 274
271 271 272 273 275 277 276 275 276 277 277 276 279 279 279 281 281 284 285 284 283 280 281 283 283 282 281 280 279 278 273 273 273 272 272 272 272 272 272 272 271 270 268
266 267 270 273 275 274 276 276 276 276 278 278 279 278 278 279 280 282 282 281 282 281 281 281 281 279 277 274 272 271 271 271 270 270 270 270 270 270 269 269 270 269 269
267 268 268 271 276 277 275 275 275 274 278 279 278 278 277 277 279 282 281 280 281 282 278 277 275 273 271 269 268 267 267 268 267 267 266 267 267 267 267 266 266 266 267
267 267 267 268 272 276 278 279 282 282 281 281 281 279 277 278 278 278 279 278 279 278 271 270 269 268 267 266 265 265 265 264 264 265 264 265 264 264 265 265 264 263 264
264 266 266 267 269 273 275 276 274 276 278 278 277 277 277 276 276 276 276 274 274 270 266 265 264 265 264 264 263 262 262 262 260 262 262 262 262 262 262 262 262 262 262
259 261 263 264 270 272 273 274 274 273 271 267 269 272 274 273 273 273 272 266 261 261 260 261 260 261 260 260 260 259 260 260 260 260 260 259 258 259 260 260 260 259 260
262 263 262 262 266 269 270 268 268 265 261 259 260 264 261 269 269 268 266 258 257 256 256 257 257 257 258 257 257 257 256 257 257 257 258 257 257 257 258 258 259 257 257
257 261 260 261 262 263 263 263 262 261 260 259 260 259 257 259 256 256 256 256 256 255 256 256 255 255 255 255 255 255 257 257 257 257 257 257 258 257 258 258 258 258 259
256 257 258 258 259 259 259 260 260 259 258 258 259 265 264 255 254 254 254 254 254 254 254 254 254 254 253 253 254 255 254 256 256 256 257 258 258 258 259 259 259 259 259
254 254 255 255 257 258 256 258 258 258 257 257 256 260 262 254 254 254 254 253 252 251 251 252 253 253 253 253 254 254 254 254 256 256 257 257 257 258 258 258 258 258 259
255 255 254 254 255 255 255 254 255 256 255 254 254 255 254 253 252 252 252 251 250 251 250 250 251 251 252 251 252 253 254 256 257 257 257 257 258 258 258 258 258 257 257
254 255 255 253 253 253 254 253 254 253 253 252 252 253 254 253 252 252 251 251 250 251 250 250 250 251 253 254 255 255 256 256 257 257 257 257 257 258 258 258 257 258 258
252 253 253 253 253 253 253 253 253 251 251 253 254 255 253 253 253 253 252 252 252 252 253 252 252 253 254 255 256 256 257 259 259 259 259 257 256 256 256 257 257 258 257
252 253 252 251 251 250 251 252 251 252 252 254 253 253 253 253 252 252 253 253 253 254 254 256 256 256 256 257 257 258 258 260 260 258 258 256 255 255 256 256 257 257 258
Wind_Speed
5 4 4 5 2 5 4 2 4 10 7 7 7 8 8 7 8 9 6 7 8 8 5 6 5 4 3 3 2 2 2 2 3 3 3 4 5 6 7 8 9 9 8
6 4 5 4 6 6 5 4 9 9 7 6 8 10 8 11 9 8 10 8 10 10 7 8 7 3 7 5 4 5 3 2 3 4 2 3 5 5 7 9 6 7 6
6 6 6 6 6 5 7 8 8 10 8 9 10 11 10 11 11 10 12 12 11 10 9 9 7 7 7 6 6 5 4 5 4 5 4 2 3 3 6 6 6 6 4
6 5 6 5 6 7 7 13 9 10 8 11 12 13 11 11 12 12 11 11 13 11 9 11 8 8 6 6 6 6 6 8 8 8 6 4 2 3 3 4 4 3 3
6 6 6 7 9 9 14 10 12 12 10 13 14 13 12 12 8 10 12 8 12 11 10 10 10 12 16 12 5 5 7 7 6 6 5 4 3 3 4 2 3 3 3
7 9 8 10 10 14 12 12 14 14 13 15 15 14 13 10 19 17 12 9 11 10 10 8 8 11 16 20 21 22 13 6 6 3 2 4 3 2 2 2 4 3 3
10 11 12 11 16 13 13 13 14 14 14 15 13 14 15 13 18 19 17 10 11 9 8 7 7 7 8 9 17 20 20 21 13 3 5 3 3 1 3 2 1 2 2
15 14 13 12 13 12 12 14 14 11 14 11 12 13 13 11 19 20 18 11 10 10 10 9 9 9 10 10 10 12 13 13 11 8 9 7 6 3 3 1 2 5 4
15 15 12 11 12 13 15 13 10 13 12 12 11 12 11 11 18 17 13 10 11 11 11 9 9 9 14 13 9 10 10 10 13 18 19 16 16 15 7 2 3 1 1
12 10 11 11 12 12 11 10 11 11 12 10 12 10 12 12 19 19 13 7 9 6 7 9 15 12 16 14 8 7 8 5 5 7 5 9 11 11 14 8 2 2 1
10 10 10 11 11 10 11 9 9 10 11 11 10 10 12 11 15 18 15 7 6 5 5 5 5 16 15 15 13 7 5 4 7 6 5 5 6 6 6 6 6 3 1
8 10 11 10 8 7 7 7 8 8 8 7 9 8 7 7 11 15 14 12 8 5 5 3 5 12 13 14 10 13 11 7 4 4 4 4 4 5 4 4 4 4 4
9 10 8 7 7 6 5 6 5 5 6 5 6 5 5 5 5 11 11 11 9 5 2 8 11 12 12 11 12 12 7 4 4 5 4 3 2 1 2 1 3 3 4
5 6 5 7 7 6 5 4 5 5 4 4 5 5 5 6 5 3 3 3 4 3 5 4 9 11 11 7 6 8 6 6 4 3 2 2 2 2 3 3 1 2 1
6 6 6 4 6 5 4 4 4 1 5 5 5 5 5 5 6 7 6 4 4 3 5 3 3 3 4 4 5 5 5 4 5 2 4 3 2 1 1 2 1 2 1
4 4 3 3 2 2 3 6 16 15 15 16 16 10 6 10 11 11 8 10 9 7 4 2 3 4 5 5 5 4 4 5 5 4 2 2 3 3 2 2 2 2 1
4 5 4 5 4 3 3 3 4 7 15 16 13 11 11 12 13 11 7 7 16 7 5 5 5 4 4 4 4 4 3 4 3 3 3 3 3 2 3 3 3 1 1
1 3 3 2 3 3 2 2 2 2 2 2 8 10 11 13 13 15 8 9 6 8 5 5 5 5 4 4 4 4 4 4 3 4 3 3 3 3 3 3 2 2 2
5 3 3 2 2 3 3 3 4 4 3 3 3 4 8 10 14 17 19 6 5 5 4 4 3 3 3 3 3 2 2 3 2 3 2 3 3 2 2 1 2 3 3
2 3 3 2 3 3 3 3 3 3 4 3 4 3 3 3 4 5 5 4 4 4 3 3 2 1 1 1 2 2 2 2 3 2 3 3 3 2 3 3 3 4 3
1 2 3 3 3 3 3 3 3 3 3 3 2 3 10 4 4 4 3 3 3 2 2 2 2 2 2 2 2 2 3 4 3 3 4 4 3 4 4 5 5 5 6
2 2 2 3 2 3 3 3 3 3 3 3 2 4 10 3 3 2 2 2 2 2 2 2 3 3 3 3 3 4 4 5 5 4 5 4 4 5 5 6 6 6 6
3 3 3 2 3 4 4 3 3 3 3 3 2 2 2 1 1 1 2 3 3 3 2 2 3 4 3 4 4 5 5 6 5 4 6 6 6 6 6 7 7 6 6
4 4 4 3 3 3 4 4 3 3 3 3 2 1 0 1 2 3 3 3 3 4 3 4 4 6 6 5 4 5 6 7 6 7 9 8 7 8 7 8 8 9 9
4 4 4 4 4 4 4 3 3 3 2 2 1 1 1 2 3 3 4 3 4 4 5 4 4 7 8 10 10 10 11 14 11 11 7 9 10 11 10 8 10 9 10
4 4 3 3 3 3 3 3 3 3 3 2 2 2 3 3 4 4 4 4 4 4 6 5 7 10 11 10 12 13 13 14 12 13 10 9 9 10 9 12 15 10 12
Wind_Direction
0 346 323 39 6 64 70 75 89 71 62 63 68 73 66 64 71 85 73 91 91 84 52 74 57 61 60 52 55 55 55 30 254 81 73 39 45 69 72 71 72 79 84
354 10 23 27 49 73 78 74 63 77 67 88 88 84 84 77 62 82 85 70 80 77 68 73 60 70 73 59 63 62 67 40 114 108 87 59 66 45 69 70 62 63 73
20 30 40 41 56 74 78 78 73 80 79 84 85 79 76 81 85 76 83 81 74 64 64 66 47 56 60 54 56 62 64 64 68 119 111 92 86 65 78 66 75 80 68
25 48 57 60 73 71 84 73 73 78 87 80 77 76 73 80 83 86 84 83 80 74 67 65 57 58 62 78 74 68 72 76 78 91 94 103 105 97 102 126 117 88 92
22 45 57 62 68 72 70 80 77 78 76 80 78 75 73 67 73 84 84 80 87 80 64 59 56 63 62 56 64 55 79 87 87 90 93 96 103 128 143 136 111 111 70
37 44 49 63 72 64 67 72 74 73 70 69 70 70 69 65 69 72 76 77 70 71 75 62 54 58 65 69 67 62 54 69 80 83 89 102 77 85 123 133 133 156 145
35 43 45 54 61 62 63 66 68 68 71 66 65 71 66 67 70 67 65 65 66 60 64 60 62 53 60 66 65 64 56 55 55 92 108 91 126 128 149 120 132 104 111
36 35 40 49 61 66 69 64 61 65 66 68 65 65 76 71 74 70 67 67 66 55 52 52 63 56 52 56 63 61 57 56 50 58 65 60 62 35 59 64 108 98 83
28 28 26 34 49 54 56 55 57 66 66 63 59 61 65 63 66 66 68 65 61 57 52 50 55 59 60 66 69 73 63 54 54 68 68 61 60 54 45 42 48 63 118
22 28 32 36 49 59 61 59 60 63 66 63 65 60 66 70 66 65 63 70 69 54 50 50 65 70 71 72 80 91 85 68 76 68 63 58 57 54 56 61 46 85 51
5 29 38 38 46 50 55 50 61 71 76 72 67 58 60 58 64 69 71 72 83 84 66 60 56 74 72 73 76 66 81 96 81 86 81 69 60 53 46 47 44 67 106
11 30 26 25 38 46 74 76 66 74 83 83 81 69 47 43 70 68 72 80 89 92 77 42 65 79 78 71 68 74 76 86 88 78 70 60 55 47 33 30 24 51 40
20 25 22 36 36 27 50 67 84 72 73 66 69 72 62 52 47 49 70 72 72 74 96 95 90 82 75 67 68 67 52 59 77 76 70 65 63 41 15 98 81 53 79
23 11 14 41 35 26 47 52 72 64 69 68 74 69 59 41 29 21 43 38 74 93 84 88 91 85 84 81 54 45 40 37 37 43 45 42 19 4 39 6 355 344 6
29 26 31 33 52 66 61 83 81 66 67 63 57 59 59 50 20 23 47 21 344 167 121 101 84 70 64 54 50 46 39 37 43 40 37 34 41 39 45 353 41 25 25
40 28 14 27 16 50 77 77 76 76 68 64 65 63 39 31 8 349 14 19 10 22 60 74 73 56 51 35 27 23 35 24 26 23 18 30 31 19 4 29 38 30 3
36 26 19 31 25 19 21 64 89 51 65 56 47 37 38 25 17 2 23 49 31 56 68 62 64 51 45 41 30 27 17 12 347 11 19 19 1 12 11 17 17 5 299
66 68 66 43 47 55 21 13 43 33 35 21 23 36 35 34 31 24 80 62 44 40 61 68 63 54 48 42 26 20 7 3 14 6 10 5 3 356 356 4 359 330 303
8 12 14 4 2 23 27 48 49 68 68 44 6 38 19 50 53 52 58 76 83 68 55 64 54 49 42 30 17 7 357 348 347 344 336 346 353 349 329 294 288 276 266
351 348 23 28 22 33 38 72 73 80 77 63 45 15 0 42 40 34 44 58 69 70 60 55 45 38 16 359 342 338 334 351 335 333 329 316 302 278 285 286 278 277 266
101 47 50 67 64 71 86 96 104 98 92 72 41 76 79 89 77 57 44 44 43 31 14 358 349 335 319 320 319 318 302 298 301 288 287 290 293 289 272 271 270 264 265
103 99 80 94 87 83 91 99 102 107 110 98 48 30 69 69 66 48 26 9 346 311 295 300 305 297 289 282 284 282 279 275 277 267 271 264 269 272 267 270 268 267 264
146 135 109 91 98 103 84 87 106 112 117 98 92 87 64 59 6 318 307 304 308 305 295 274 281 288 269 253 240 239 259 267 264 261 266 267 264 262 255 259 258 259 254
149 136 127 123 121 120 124 127 127 123 131 134 139 163 243 310 302 298 291 295 296 291 283 273 257 262 276 271 255 243 242 251 249 247 237 242 249 255 252 253 250 247 249
126 128 132 147 146 144 138 139 135 146 160 181 208 258 274 279 288 290 292 289 286 284 283 273 258 265 270 275 271 266 260 262 256 254 248 241 246 249 248 249 252 253 246
128 136 140 138 142 151 152 161 177 184 200 220 240 258 275 281 276 277 280 282 280 276 276 273 265 259 264 266 264 265 266 266 262 251 238 236 238 242 239 242 249 247 250